STARLINK-33533, 63387

Orbit data source: Space-Track

STARLINK-33533, 63387 is a payload satellite owned by SpaceX/Seattle (US) in LEO that was launched on Wed, 26 Mar 2025 UTC via an FALCON 9 launch vehicle from the Air Force Western Test Range (AFWTR). Payload-class satellites include a variety of spacecraft equipped with specific instruments for various scientific and technological missions. These include communications satellites like Starlink; space stations such as the ISS; scientific satellites like the Hubble; Earth observation satellites from companies like Planet Labs, Umbra, and HawkEye 360; GPS; miniature CubeSats for education and research; and military/defense satellites.

Loading next visibility...
Identifier
63387, 2025-063AA
Orbit
LEO
Country
Flag of USUS
Related business
Manufacturer
SpaceX/Seattle
Mission
Operational Commercial Communications
Bus & Motor
STARLINK V2MO, Unknown motor
Mass
575 kg wet, ~530 kg dry
Launch date (UTC)
2025-03-26 (1 year ago)
Launch vehicle
FALCON 9
Launch site
Air Force Western Test Range (AFWTR)
Object type
Payload
Rocket body
Debris
Shape & HBR
Box + 2 Pan, 17.7 m
Radar Cross Section
36.964 m², Large (>1 m²)

Expand to show TLE details & history
Last TLE update: 1 day ago

TLE from 1 day ago
0 STARLINK-33533
1 63387U 25063AA  26170.71994519  .00027195  00000-0  81258-3 0  9995
2 63387  53.1593 295.4974 0001091  71.4881 288.6240 15.34419493 70375
Epoch: 2026-06-19T17:16Z
TLE epoch observation values (Epoch: 2026-06-19T17:16:43.264Z)
Latitude
-0.00002°
Longitude
128.37224°
Altitude
463.308 km
Speed
7.636 km/s
True Right ascension
19h 41m 59s
True Declination
0° 00' 00"
Sunlit
Object was in full shadow at epoch
Visualization orbit readout
Latitude
Unknown
Longitude
Unknown
Altitude
Unknown
Speed
Unknown
Apparent Right ascension
Unknown
Apparent Declination
Unknown
Sunlit
N/A
Visualization observer readout
Local Sidereal Time
07:17:27
Azimuth
Unknown
Elevation
Unknown
Doppler factor
Unknown
Orbital elements
Apogee altitude
463.649 km
Perigee altitude
462.156 km
Semi-major axis
6,841.039 km
Eccentricity
0.00011
Inclination
53.1593°
RAAN
295.4974°
Arg. of periapsis
71.4881°
True anomaly
288.61215°
Mean anomaly
288.624°
Eccentric anomaly
288.61808°
Mean motion
3.83584 °/min
Orbital period
93.85 mins
BSTAR
0.00081258
Loading maneuver chart data...
Computing Atmospheric mass density...
Loading historical data...
Loading historical data...
Loading historical data...
Loading historical data...
Loading historical data...
Loading historical data...
Loading historical data...

Documentation

Showing up to 5 results
|